Location: Oberwangen
(47.4286°N, 8.9679°E)
Time: 23:32:58
(UTC+00:00)

ERS-1 Rocket - Pass Details

Date: 20 June 2021
Orbit: 752 x 758 km, 98.4° (Epoch: 23 July)

Event Time Altitude Azimuth Distance (km) Brightness Sun altitude
Exits shadow 20:24:07 10° 143° (SE) 2,280 4.8 -8.2°
Maximum altitude 20:28:56 49° 69° (ENE) 976 3.4 -8.7°
Drops below altitude 10° 20:33:48 10° 356° (N) 2,299 6.4 -9.3°
Sets 20:36:10 0° 351° (N) 3,229 7.4 -9.5°
